FW7487 Weather Reports


Display with metric or nautical units.
time (UTC)temp
F
wind
direction
speed
MPH
gust
MPH
rain 1hr
in
rain 24hr
in
rain mn
in
humidity
%
barometer
mb
20260904064556 77 0 0.0 1.0 0.00 0.00 0.00 84 1017.4
20260904063110 77 0 0.0 2.0 0.00 0.00 0.00 83 1017.3
20260904061602 78 0 0.0 3.0 0.00 0.00 0.00 82 1017.3
20260904054602 79 0 0.0 2.0 0.00 0.00 0.00 80 1017.4
20260904053117 79 0 0.0 3.0 0.00 0.00 0.00 79 1017.6
20260904051601 79 0 0.0 4.0 0.00 0.00 0.00 78 1017.5
20260904050059 80 0 0.0 2.0 0.00 0.00 0.00 76 1017.5
20260904044554 80 0 1.0 6.0 0.00 0.00 0.00 77 1017.5
20260904043056 80 0 0.0 2.0 0.00 0.00 0.00 77 1017.5
20260904041552 81 0 0.0 1.0 0.00 0.00 0.00 76 1017.3
20260904040057 80 0 0.0 0.0 0.00 0.00 0.00 78 1017.3
20260904034604 80 0 0.0 0.0 0.00 0.00 0.00 78 1017.4
20260904033058 81 0 0.0 0.0 0.00 0.00 0.00 75 1017.3
20260904031552 83 36 0.0 2.0 0.00 0.00 0.00 72 1017.3
20260904030058 83 0 0.0 3.0 0.00 0.00 0.00 71 1017.3
20260904024600 83 0 0.0 0.0 0.00 0.00 0.00 72 1017.4
20260904023055 82 0 0.0 1.0 0.00 0.00 0.00 74 1017.4
20260904021556 82 0 0.0 1.0 0.00 0.00 0.00 74 1017.3
20260904020104 83 0 0.0 0.0 0.00 0.00 0.00 73 1017.2
20260904014606 83 0 0.0 0.0 0.00 0.00 0.00 71 1017.2
20260904013122 84 0 0.0 0.0 0.00 0.00 0.00 70 1017.2
20260904011645 85 0 0.0 1.0 0.00 0.00 0.00 68 1017.0
20260904010058 85 0 0.0 1.0 0.00 0.00 0.00 68 1016.7
20260904004555 87 0 0.0 1.0 0.00 0.00 0.00 65 1016.4
20260904003103 87 137 0.0 2.0 0.00 0.00 0.00 64 1016.4
20260904001558 88 0 0.0 3.0 0.00 0.00 0.00 63 1016.5
20260904000059 89 185 0.0 4.0 0.00 0.00 0.00 62 1016.4
20260903234601 90 155 1.0 4.0 0.00 0.00 0.00 61 1016.2
20260903233107 90 182 1.0 5.0 0.00 0.00 0.00 60 1016.2
20260903231604 91 182 1.0 3.0 0.00 0.00 0.00 58 1016.1
20260903230103 92 192 1.0 7.0 0.00 0.00 0.00 56 1015.9
20260903224601 93 148 1.0 9.0 0.00 0.00 0.00 54 1015.8
20260903223051 94 153 1.0 5.0 0.00 0.00 0.00 52 1015.7
20260903221601 94 122 2.0 6.0 0.00 0.00 0.00 51 1015.7
20260903214605 96 100 2.0 8.0 0.00 0.00 0.00 47 1015.7
20260903213102 95 119 1.0 10.0 0.00 0.00 0.00 50 1015.7
20260903211605 97 169 1.0 7.0 0.00 0.00 0.00 48 1015.9
20260903210139 97 222 2.0 10.0 0.00 0.00 0.00 48 1015.9
20260903204603 96 162 3.0 9.0 0.00 0.00 0.00 50 1015.9
20260903203103 95 159 3.0 7.0 0.00 0.00 0.00 51 1016.1
20260903201601 96 109 1.0 6.0 0.00 0.00 0.00 49 1016.3
20260903200117 96 22 3.0 9.0 0.00 0.00 0.00 50 1016.4
20260903194556 96 0 1.0 8.0 0.00 0.00 0.00 50 1016.7
20260903193103 96 298 3.0 9.0 0.00 0.00 0.00 51 1017.0
20260903191604 96 167 2.0 10.0 0.00 0.00 0.00 50 1017.2
20260903190100 96 217 1.0 7.0 0.00 0.00 0.00 53 1017.4
20260903184604 94 47 2.0 8.0 0.00 0.00 0.00 54 1017.6
20260903183108 95 35 2.0 9.0 0.00 0.00 0.00 53 1017.9
20260903181559 95 151 2.0 9.0 0.00 0.00 0.00 52 1018.0
20260903180100 94 91 2.0 8.0 0.00 0.00 0.00 57 1018.0
20260903174555 94 117 2.0 9.0 0.00 0.00 0.00 56 1018.2
20260903173104 94 142 3.0 8.0 0.00 0.00 0.00 57 1018.2
20260903171611 93 143 2.0 7.0 0.00 0.00 0.00 58 1018.4
20260903164558 93 213 2.0 9.0 0.00 0.00 0.00 59 1018.9
20260903163102 92 138 1.0 9.0 0.00 0.00 0.00 60 1019.1
20260903161601 91 132 2.0 9.0 0.00 0.00 0.00 62 1019.2
20260903160100 92 167 2.0 8.0 0.00 0.00 0.00 60 1019.3
20260903154554 90 245 0.0 5.0 0.00 0.00 0.00 66 1019.4
20260903153109 90 94 2.0 8.0 0.00 0.00 0.00 65 1019.4
20260903151610 90 103 1.0 4.0 0.00 0.00 0.00 66 1019.4
20260903150108 88 0 1.0 4.0 0.00 0.00 0.00 69 1019.5
20260903144555 87 186 1.0 4.0 0.00 0.00 0.00 72 1019.6
20260903143105 87 302 0.0 4.0 0.00 0.00 0.00 73 1019.5
20260903141559 85 319 2.0 4.0 0.00 0.00 0.00 75 1019.5
20260903140112 84 323 1.0 3.0 0.00 0.00 0.00 75 1019.5
20260903134603 84 0 0.0 3.0 0.00 0.00 0.00 78 1019.5
20260903133115 82 329 0.0 4.0 0.00 0.00 0.00 81 1019.4
20260903131610 81 0 0.0 4.0 0.00 0.00 0.00 82 1019.6
20260903130101 80 325 0.0 3.0 0.00 0.00 0.00 84 1019.5
20260903124606 79 329 1.0 2.0 0.00 0.00 0.00 86 1019.5
20260903123101 77 0 0.0 0.0 0.00 0.00 0.00 92 1019.5
20260903121559 75 0 0.0 1.0 0.00 0.00 0.00 93 1019.3
20260903120101 75 0 0.0 0.0 0.00 0.00 0.00 94 1019.2
20260903114606 74 0 0.0 1.0 0.00 0.00 0.00 94 1019.1
20260903113106 74 0 0.0 0.0 0.00 0.00 0.00 94 1018.9
20260903111559 74 0 0.0 1.0 0.00 0.00 0.00 94 1018.8
20260903110050 74 0 0.0 0.0 0.00 0.00 0.00 94 1018.6
20260903104602 74 0 0.0 0.0 0.00 0.00 0.00 94 1018.3
20260903103101 74 0 0.0 0.0 0.00 0.00 0.00 93 1018.2
20260903101602 74 0 0.0 0.0 0.00 0.00 0.00 93 1018.3
20260903100052 74 0 0.0 0.0 0.00 0.00 0.00 93 1018.2
20260903094652 74 0 0.0 0.0 0.00 0.00 0.00 93 1018.1
20260903093104 74 0 0.0 0.0 0.00 0.00 0.00 92 1018.3
20260903091601 75 0 0.0 0.0 0.00 0.00 0.00 92 1018.3
20260903090052 75 0 0.0 0.0 0.00 0.00 0.00 91 1018.2
20260903084601 75 0 0.0 0.0 0.00 0.00 0.00 91 1018.3
20260903083100 75 0 0.0 0.0 0.00 0.00 0.00 90 1018.3
20260903081601 76 0 0.0 0.0 0.00 0.00 0.00 90 1018.3
20260903080103 76 0 0.0 0.0 0.00 0.00 0.00 88 1018.3
20260903074605 77 0 0.0 0.0 0.00 0.00 0.00 87 1018.3
20260903073054 77 0 0.0 0.0 0.00 0.00 0.00 87 1018.4
20260903071601 77 0 0.0 0.0 0.00 0.00 0.00 87 1018.4
20260903070103 77 0 0.0 0.0 0.00 0.00 0.00 87 1018.4